Beatrice, NE

8:23 AM CDT on April 24, 2017 (GMT -0500)
Beatrice Municipal

Weather History for KBIE - January, 2014

Change the Weather History Date:

Monday, January 20, 2014

  Actual Average Record
Temperature  
Mean Temperature 29 °F -  
Max Temperature 50 °F 35 °F 66 °F (1997)
Min Temperature 7 °F 16 °F -11 °F (1962)
Degree Days  
Heating Degree Days 36    
Moisture  
Dew Point 15 °F    
Average Humidity 57    
Maximum Humidity 79    
Minimum Humidity 31    
Precipitation  
Precipitation 0.00 in - - ()
Sea Level Pressure  
Sea Level Pressure 30.09 in    
Wind  
Wind Speed 10 mph (NNW)    
Max Wind Speed 41 mph    
Max Gust Speed 50 mph    
Visibility 10 miles    
Events      
Averages and records for this station are not official NWS values.
T = Trace of Precipitation, MM = Missing Value Source: NWS Daily Summary

Daily Weather History Graph

Daily Weather History Graph

Search for Another Location

Airport or City:

Trip Planner

Search our weather history database for the weather conditions in past years. The results will help you decide how hot, cold, wet, or windy it might be!

Date:

Astronomy

Jan. 20, 2014 Rise Set
Actual Time 7:45 AM CST 5:31 PM CST
Civil Twilight 7:15 AM CST 6:00 PM CST
Nautical Twilight 6:42 AM CST 6:34 PM CST
Astronomical Twilight 6:10 AM CST 7:06 PM CST
Moon 10:07 PM CST (1/20) 9:45 AM CST (1/20)
Length of Visible Light 10h 45m
Length of Day
9h 45m
Waning Gibbous, 82% of the Moon is Illuminated
Jan 20
Waning Gibbous
Jan 23
Last Quarter
Jan 30
New
Feb 6
First Quarter
Feb 14
Full

Hourly Weather History & Observations

Time (CST) Temp. Windchill Dew Point Humidity Pressure Visibility Wind Dir Wind Speed Gust Speed Precip Events Conditions
12:15 AM 31.1 °F - 17.2 °F 57% 29.86 in 10.0 mi Calm Calm - N/A   Clear
12:35 AM 29.1 °F - 16.5 °F 59% 29.86 in 10.0 mi Calm Calm - N/A   Clear
12:55 AM 30.0 °F - 16.7 °F 58% 29.86 in 10.0 mi Calm Calm - N/A   Clear
1:15 AM 27.7 °F - 17.1 °F 64% 29.85 in 10.0 mi Calm Calm - N/A   Clear
1:35 AM 27.3 °F - 16.9 °F 65% 29.85 in 10.0 mi Calm Calm - N/A   Clear
1:55 AM 28.0 °F - 16.9 °F 63% 29.86 in 10.0 mi Calm Calm - N/A   Clear
2:15 AM 25.3 °F 19.7 °F 16.0 °F 68% 29.86 in 10.0 mi North 4.6 mph - N/A   Clear
2:35 AM 25.3 °F - 16.3 °F 69% 29.87 in 10.0 mi Calm Calm - N/A   Clear
2:55 AM 27.0 °F - 16.0 °F 63% 29.87 in 10.0 mi Calm Calm - N/A   Clear
3:15 AM 24.6 °F - 15.8 °F 69% 29.88 in 10.0 mi Calm Calm - N/A   Clear
3:35 AM 23.2 °F - 15.3 °F 72% 29.88 in 10.0 mi Calm Calm - N/A   Clear
3:55 AM 21.0 °F - 14.4 °F 75% 29.89 in 10.0 mi Calm Calm - N/A   Clear
4:15 AM 21.0 °F - 14.2 °F 75% 29.91 in 10.0 mi Calm Calm - N/A   Clear
4:35 AM 24.1 °F - 16.2 °F 72% 29.91 in 10.0 mi Calm Calm - N/A   Clear
4:55 AM 22.8 °F 18.2 °F 15.1 °F 72% 29.93 in 10.0 mi West 3.5 mph - N/A   Clear
5:15 AM 21.4 °F - 14.9 °F 76% 29.93 in 10.0 mi Calm Calm - N/A   Clear
5:35 AM 21.9 °F 17.2 °F 14.9 °F 74% 29.93 in 10.0 mi NW 3.5 mph - N/A   Clear
5:55 AM 21.7 °F 17.0 °F 15.4 °F 77% 29.94 in 10.0 mi WNW 3.5 mph - N/A   Clear
6:15 AM 21.7 °F 15.5 °F 15.4 °F 77% 29.95 in 10.0 mi NW 4.6 mph - N/A   Clear
6:35 AM 19.8 °F - 14.2 °F 79% 29.96 in 10.0 mi Calm Calm - N/A   Clear
6:55 AM 22.1 °F - 15.8 °F 77% 29.96 in 10.0 mi Calm Calm - N/A   Clear
7:15 AM 22.5 °F 17.8 °F 16.0 °F 76% 29.98 in 10.0 mi NW 3.5 mph - N/A   Clear
7:35 AM 21.7 °F 15.5 °F 16.0 °F 78% 29.99 in 10.0 mi WNW 4.6 mph - N/A   Clear
7:55 AM 23.0 °F 17.0 °F 17.1 °F 78% 29.99 in 10.0 mi WNW 4.6 mph - N/A   Clear
8:15 AM 23.7 °F 19.3 °F 17.2 °F 76% 30.00 in 10.0 mi WNW 3.5 mph - N/A   Clear
8:35 AM 24.1 °F - 17.8 °F 77% 30.00 in 10.0 mi Calm Calm - N/A   Clear
8:55 AM 27.1 °F - 21.2 °F 78% 30.01 in 10.0 mi Calm Calm - N/A   Clear
9:15 AM 31.3 °F 22.7 °F 23.0 °F 71% 30.02 in 10.0 mi NW 10.4 mph - N/A   Clear
9:35 AM 34.5 °F 26.7 °F 23.7 °F 65% 30.03 in 10.0 mi NW 10.4 mph - N/A   Clear
9:55 AM 37.0 °F 29.8 °F 24.3 °F 60% 30.05 in 10.0 mi NW 10.4 mph - N/A   Clear
10:15 AM 40.8 °F 32.9 °F 25.5 °F 55% 30.06 in 10.0 mi NW 15.0 mph - N/A   Clear
10:35 AM 42.8 °F 36.6 °F 25.7 °F 51% 30.07 in 10.0 mi NW 11.5 mph - N/A   Clear
10:55 AM 46.9 °F - 26.1 °F 44% 30.08 in 10.0 mi NW 15.0 mph - N/A   Clear
11:15 AM 45.3 °F 37.3 °F 24.4 °F 44% 30.07 in 10.0 mi NNW 20.7 mph 25.3 mph N/A   Clear
11:35 AM 46.4 °F 38.7 °F 23.9 °F 41% 30.08 in 10.0 mi NW 20.7 mph 25.3 mph N/A   Clear
11:55 AM 47.3 °F - 23.0 °F 38% 30.07 in 10.0 mi NW 24.2 mph 29.9 mph N/A   Clear
12:15 PM 48.7 °F - 21.2 °F 34% 30.06 in 10.0 mi NNW 23.0 mph 35.7 mph N/A   Clear
12:35 PM 50.0 °F - 20.7 °F 32% 30.06 in 10.0 mi NNW 29.9 mph 35.7 mph N/A   Clear
12:55 PM 49.1 °F - 20.3 °F 32% 30.05 in 10.0 mi NW 28.8 mph 35.7 mph N/A   Clear
1:15 PM 48.7 °F - 20.3 °F 33% 30.05 in 10.0 mi NW 28.8 mph 35.7 mph N/A   Clear
1:35 PM 49.3 °F - 20.3 °F 32% 30.05 in 10.0 mi NNW 27.6 mph 39.1 mph N/A   Clear
1:55 PM 49.3 °F - 19.6 °F 31% 30.05 in 10.0 mi NNW 29.9 mph 36.8 mph N/A   Mostly Cloudy
2:15 PM 48.7 °F - 18.9 °F 31% 30.06 in 10.0 mi NNW 39.1 mph 47.2 mph N/A   Mostly Cloudy
2:35 PM 46.6 °F - 17.6 °F 32% 30.08 in 10.0 mi NW 31.1 mph 47.2 mph N/A   Overcast
2:55 PM 46.6 °F - 17.8 °F 32% 30.08 in 10.0 mi NW 41.4 mph 49.5 mph N/A   Overcast
3:15 PM 46.0 °F 36.4 °F 18.5 °F 33% 30.09 in 10.0 mi NNW 32.2 mph 36.8 mph N/A   Overcast
3:35 PM 46.0 °F 36.7 °F 18.3 °F 33% 30.08 in 10.0 mi NW 29.9 mph 38.0 mph N/A   Mostly Cloudy
3:55 PM 46.4 °F 37.4 °F 18.5 °F 33% 30.09 in 10.0 mi NW 28.8 mph 38.0 mph N/A   Mostly Cloudy
4:15 PM 45.5 °F 35.2 °F 20.1 °F 36% 30.11 in 10.0 mi NNW 35.7 mph 47.2 mph N/A   Overcast
4:35 PM 40.1 °F 29.7 °F 28.4 °F 63% 30.13 in 10.0 mi NNW 24.2 mph - N/A   Mostly Cloudy
4:55 PM 39.9 °F 28.4 °F 19.6 °F 44% 30.14 in 10.0 mi NNW 29.9 mph 39.1 mph N/A   Scattered Clouds
5:15 PM 39.0 °F 27.0 °F 16.9 °F 41% 30.16 in 10.0 mi NNW 31.1 mph 42.6 mph N/A   Mostly Cloudy
5:35 PM 36.1 °F 24.2 °F 14.2 °F 41% 30.18 in 10.0 mi NNW 25.3 mph 40.3 mph N/A   Scattered Clouds
5:55 PM 33.8 °F 20.1 °F 14.7 °F 46% 30.20 in 10.0 mi NNW 29.9 mph 34.5 mph N/A   Clear
6:15 PM 32.2 °F 17.9 °F 13.8 °F 47% 30.22 in 10.0 mi NNW 29.9 mph 41.4 mph N/A   Clear
6:35 PM 30.4 °F 16.7 °F 14.0 °F 51% 30.23 in 10.0 mi NNW 24.2 mph 36.8 mph N/A   Clear
6:55 PM 27.7 °F 13.5 °F 15.3 °F 60% 30.26 in 10.0 mi North 23.0 mph 36.8 mph N/A   Scattered Clouds
7:15 PM 25.0 °F 8.9 °F 13.1 °F 61% 30.29 in 10.0 mi North 26.5 mph 34.5 mph N/A   Scattered Clouds
7:35 PM 22.5 °F 5.0 °F 9.0 °F 56% 30.30 in 10.0 mi North 28.8 mph 41.4 mph N/A   Clear
7:55 PM 20.8 °F 3.1 °F 7.0 °F 55% 30.32 in 10.0 mi NNW 27.6 mph 40.3 mph N/A   Clear
8:15 PM 19.4 °F 0.2 °F 5.9 °F 56% 30.34 in 10.0 mi NNW 31.1 mph 39.1 mph N/A   Clear
8:35 PM 17.2 °F -1.1 °F 5.7 °F 61% 30.35 in 10.0 mi North 25.3 mph 32.2 mph N/A   Clear
8:55 PM 16.2 °F -2.2 °F 5.5 °F 63% 30.36 in 10.0 mi North 24.2 mph - N/A   Clear
9:15 PM 14.9 °F -4.9 °F 3.4 °F 60% 30.38 in 10.0 mi NNW 27.6 mph 36.8 mph N/A   Scattered Clouds
9:35 PM 13.6 °F -5.6 °F 2.3 °F 61% 30.39 in 10.0 mi NNW 24.2 mph 34.5 mph N/A   Clear
9:55 PM 12.6 °F -5.3 °F 0.9 °F 60% 30.41 in 10.0 mi North 19.6 mph 34.5 mph N/A   Clear
10:15 PM 11.8 °F -8.4 °F 0.7 °F 61% 30.42 in 10.0 mi North 25.3 mph 28.8 mph N/A   Clear
10:35 PM 11.1 °F -8.5 °F 0.5 °F 62% 30.43 in 10.0 mi North 23.0 mph 28.8 mph N/A   Clear
10:55 PM 10.4 °F -10.3 °F -0.4 °F 62% 30.43 in 10.0 mi North 25.3 mph 32.2 mph N/A   Clear
11:15 PM 9.5 °F -8.8 °F -0.4 °F 64% 30.44 in 10.0 mi North 18.4 mph 25.3 mph N/A   Clear
11:35 PM 8.4 °F -12.5 °F -1.8 °F 63% 30.46 in 10.0 mi North 24.2 mph 29.9 mph N/A   Clear
11:55 PM 7.5 °F -9.7 °F -2.6 °F 63% 30.46 in 10.0 mi North 15.0 mph - N/A   Clear